Date String (YYYY-MM-DD hh:mm:ss) UTC,Instrument flags,absolute air pressure of the measurement (hPa),sample flow rate (lpm),inlet stack bypass flow (lpm),air temperature of the measurement (°C),ambient temperature measured by the external sensor (°C),aerosol sample conditioner tube jacket temperature (°C),OPC LED temperature (°C),internal box temperature (°C),relative humidity of the measurement (%),span deviation,mass concentration of particles derived from Lorenz-Mie calculation of OPC scattering (μg/m³),mass concentration of particles derived from Lorenz-Mie calculation of OPC scattering (μg/m³),mass concentration of particles derived from Lorenz-Mie calculation of OPC scattering (μg/m³)
DateTimeUTC,F1_M11,P_M11,Q1_M11,Q2_M11,T1_M11,T2_M11,T3_M11,T4_M11,T5_M11,U1_M11,ZSPAN_M11,X0_M11,X2_M11,X1_M11
2024-05-11 23:00:00,SystemResetWarning,0825.0,4.99,000.00,024.5,022.4,000.0,032.7,025.6,021.2,0000.0,0016.04,0006.14,0005.43
2024-05-11 23:01:00,SystemResetWarning,0825.0,5.01,000.00,024.2,021.9,000.0,032.7,025.3,021.9,0000.0,0014.64,0005.99,0005.30
2024-05-11 23:02:00,SystemResetWarning,0825.0,5.00,000.00,024.2,022.2,000.0,032.6,025.5,021.9,0000.0,0013.69,0005.89,0005.18
2024-05-11 23:03:00,SystemResetWarning,0825.1,5.00,000.00,024.2,022.6,000.0,032.6,025.6,021.7,0000.0,0013.07,0005.83,0005.11
2024-05-11 23:04:00,SystemResetWarning,0825.0,5.01,000.00,024.3,022.9,000.0,032.5,025.9,021.4,0000.0,0014.29,0005.82,0005.09
2024-05-11 23:05:00,SystemResetWarning,0825.1,5.01,000.00,024.3,023.2,000.0,032.5,026.1,021.2,0000.0,0014.38,0005.82,0005.08
2024-05-11 23:06:00,SystemResetWarning,0825.1,4.99,000.00,024.4,023.4,000.0,032.5,026.2,021.3,0000.0,0014.56,0005.82,0005.07
2024-05-11 23:07:00,SystemResetWarning,0825.1,4.99,000.00,024.4,023.7,000.0,032.5,026.3,022.1,0000.0,0015.17,0005.82,0005.05
2024-05-11 23:08:00,SystemResetWarning,0825.1,5.00,000.00,024.5,023.9,000.0,032.5,026.4,022.5,0000.0,0015.42,0005.79,0005.00
2024-05-11 23:09:00,SystemResetWarning,0825.1,5.01,000.00,024.6,024.0,000.0,032.5,026.5,022.1,0000.0,0015.19,0005.81,0004.97
2024-05-11 23:10:00,SystemResetWarning,0825.1,5.01,000.00,024.7,024.2,000.0,032.6,026.6,022.0,0000.0,0014.86,0005.83,0004.95
2024-05-11 23:11:00,SystemResetWarning,0825.1,4.99,000.00,024.7,024.3,000.0,032.6,026.7,021.7,0000.0,0015.33,0005.84,0004.92
2024-05-11 23:12:00,SystemResetWarning,0825.1,4.99,000.00,024.8,023.9,000.0,032.7,026.4,021.6,0001.2,0016.32,0005.84,0004.89
2024-05-11 23:13:00,SystemResetWarning,0824.9,5.00,000.00,024.5,022.1,000.0,032.8,025.4,022.3,0001.2,0016.72,0005.84,0004.87
2024-05-11 23:14:00,SystemResetWarning,0824.9,5.01,000.00,024.2,021.9,000.0,032.8,025.3,022.5,0000.9,0016.45,0005.80,0004.86
2024-05-11 23:15:00,SystemResetWarning,0824.9,5.01,000.00,024.2,022.2,000.0,032.7,025.4,022.8,0000.0,0015.49,0005.80,0004.84
2024-05-11 23:16:00,SystemResetWarning,0825.0,5.00,000.00,024.2,022.6,000.0,032.6,025.6,022.8,0000.0,0015.49,0005.80,0004.81
2024-05-11 23:17:00,SystemResetWarning,0825.0,5.00,000.00,024.3,022.9,000.0,032.5,025.9,022.9,0000.0,0015.56,0005.75,0004.76
2024-05-11 23:18:00,SystemResetWarning,0824.9,5.00,000.00,024.3,023.2,000.0,032.5,026.1,023.2,0000.0,0015.28,0005.68,0004.69
2024-05-11 23:19:00,SystemResetWarning,0824.9,5.01,000.00,024.4,023.4,000.0,032.5,026.2,023.1,0000.0,0014.92,0005.68,0004.67
2024-05-11 23:20:00,SystemResetWarning,0824.9,5.00,000.00,024.5,023.7,000.0,032.5,026.3,022.8,0000.0,0014.85,0005.71,0004.68
2024-05-11 23:21:00,SystemResetWarning,0824.9,5.00,000.00,024.6,023.9,000.0,032.5,026.4,022.5,0000.0,0014.27,0005.70,0004.68
2024-05-11 23:22:00,SystemResetWarning,0824.9,4.99,000.00,024.6,024.0,000.0,032.6,026.5,022.7,0000.0,0013.90,0005.69,0004.67
2024-05-11 23:23:00,SystemResetWarning,0824.9,5.00,000.00,024.7,024.2,000.0,032.6,026.6,022.6,0000.0,0013.75,0005.66,0004.66
2024-05-11 23:24:00,SystemResetWarning,0824.9,5.01,000.00,024.8,024.3,000.0,032.7,026.7,022.5,0000.0,0013.41,0005.60,0004.63
2024-05-11 23:25:00,SystemResetWarning,0824.9,4.98,000.00,024.8,024.3,000.0,032.7,026.7,022.7,0000.0,0012.99,0005.55,0004.60
2024-05-11 23:26:00,SystemResetWarning,0824.9,5.00,000.00,024.6,022.7,000.0,032.8,025.8,023.1,0000.0,0012.98,0005.49,0004.56
2024-05-11 23:27:00,SystemResetWarning,0824.9,5.02,000.00,024.3,021.9,000.0,032.8,025.3,023.4,0000.0,0013.41,0005.41,0004.53
2024-05-11 23:28:00,SystemResetWarning,0824.9,4.99,000.00,024.3,022.2,000.0,032.8,025.5,023.3,0000.0,0013.27,0005.40,0004.52
2024-05-11 23:29:00,SystemResetWarning,0824.9,5.00,000.00,024.2,022.5,000.0,032.7,025.6,023.4,0000.0,0012.90,0005.39,0004.51
2024-05-11 23:30:00,SystemResetWarning,0824.9,5.00,000.00,024.3,022.8,000.0,032.6,025.9,023.1,0000.0,0013.05,0005.40,0004.51
2024-05-11 23:31:00,SystemResetWarning,0824.9,5.00,000.00,024.4,023.1,000.0,032.6,026.1,023.0,0000.0,0012.93,0005.35,0004.52
2024-05-11 23:32:00,SystemResetWarning,0824.9,5.00,000.00,024.4,023.4,000.0,032.6,026.2,023.1,0000.0,0012.91,0005.32,0004.50
2024-05-11 23:33:00,SystemResetWarning,0824.9,5.00,000.00,024.5,023.6,000.0,032.6,026.3,023.9,0000.0,0013.01,0005.30,0004.48
2024-05-11 23:34:00,SystemResetWarning,0824.9,5.00,000.00,024.5,023.8,000.0,032.6,026.4,023.8,0000.0,0012.55,0005.24,0004.44
2024-05-11 23:35:00,SystemResetWarning,0824.9,5.00,000.00,024.6,024.0,000.0,032.6,026.5,023.4,0000.0,0012.47,0005.21,0004.43
2024-05-11 23:36:00,SystemResetWarning,0824.9,5.00,000.00,024.7,024.1,000.0,032.6,026.6,023.8,0000.0,0012.11,0005.25,0004.40
2024-05-11 23:37:00,SystemResetWarning,0824.9,5.00,000.00,024.8,024.3,000.0,032.7,026.7,023.5,0000.0,0011.96,0005.23,0004.38
2024-05-11 23:38:00,SystemResetWarning,0824.9,5.00,000.00,024.8,024.1,000.0,032.7,026.5,023.3,0000.0,0011.18,0005.21,0004.37
2024-05-11 23:39:00,SystemResetWarning,0824.9,4.99,000.00,024.5,022.1,000.0,032.8,025.5,024.1,0000.0,0010.63,0005.21,0004.35
2024-05-11 23:40:00,SystemResetWarning,0824.9,5.01,000.00,024.1,020.8,000.0,032.8,024.8,024.7,0000.0,0010.96,0005.19,0004.32
2024-05-11 23:41:00,SystemResetWarning,0824.9,5.01,000.00,023.9,021.1,000.0,032.8,024.8,024.6,0000.0,0010.87,0005.14,0004.32
2024-05-11 23:42:00,SystemResetWarning,0825.0,4.99,000.00,023.9,021.6,000.0,032.6,025.0,024.8,0000.0,0010.82,0005.12,0004.31
2024-05-11 23:43:00,SystemResetWarning,0824.9,5.00,000.00,023.9,022.0,000.0,032.5,025.3,024.9,0000.0,0010.79,0005.10,0004.30
2024-05-11 23:44:00,SystemResetWarning,0824.9,5.00,000.00,024.0,022.4,000.0,032.4,025.5,024.5,0000.0,0011.20,0005.11,0004.30
2024-05-11 23:45:00,SystemResetWarning,0824.9,5.01,000.00,024.0,022.7,000.0,032.4,025.7,024.8,0000.0,0011.24,0005.15,0004.32
2024-05-11 23:46:00,SystemResetWarning,0824.9,4.99,000.00,024.1,023.0,000.0,032.4,025.9,025.2,0000.0,0012.22,0005.16,0004.32
2024-05-11 23:47:00,SystemResetWarning,0824.9,4.99,000.00,024.2,023.3,000.0,032.4,026.0,024.6,0000.0,0012.34,0005.15,0004.32
2024-05-11 23:48:00,SystemResetWarning,0824.9,5.01,000.00,024.2,023.5,000.0,032.4,026.1,024.5,0000.0,0012.40,0005.16,0004.34
2024-05-11 23:49:00,SystemResetWarning,0824.9,5.00,000.00,024.3,023.7,000.0,032.4,026.2,024.5,0000.0,0012.48,0005.20,0004.34
2024-05-11 23:50:00,SystemResetWarning,0824.8,4.99,000.00,024.4,023.9,000.0,032.4,026.3,025.2,0000.0,0012.43,0005.22,0004.33
2024-05-11 23:51:00,SystemResetWarning,0824.9,4.99,000.00,024.5,024.0,000.0,032.5,026.4,025.0,0000.0,0012.33,0005.20,0004.32
2024-05-11 23:52:00,SystemResetWarning,0824.9,4.99,000.00,024.5,024.1,000.0,032.5,026.5,023.7,0000.0,0012.51,0005.23,0004.30
2024-05-11 23:53:00,SystemResetWarning,0824.9,5.00,000.00,024.6,024.2,000.0,032.5,026.6,023.6,0000.0,0012.53,0005.19,0004.28
2024-05-11 23:54:00,SystemResetWarning,0824.9,5.01,000.00,024.7,024.3,000.0,032.6,026.6,024.0,0000.0,0013.29,0005.22,0004.25
2024-05-11 23:55:00,SystemResetWarning,0824.9,5.00,000.00,024.8,024.4,000.0,032.6,026.7,023.8,0000.0,0013.85,0005.24,0004.23
2024-05-11 23:56:00,SystemResetWarning,0824.9,4.99,000.00,024.7,023.5,000.0,032.7,026.2,023.4,0000.0,0015.33,0005.21,0004.21
2024-05-11 23:57:00,SystemResetWarning,0824.8,5.01,000.00,024.4,021.9,000.0,032.8,025.3,023.8,0000.0,0014.75,0005.22,0004.20
2024-05-11 23:58:00,SystemResetWarning,0824.8,5.01,000.00,024.2,022.0,000.0,032.8,025.3,023.9,0000.0,0016.03,0005.23,0004.20
2024-05-11 23:59:00,SystemResetWarning,0824.8,4.99,000.00,024.2,022.3,000.0,032.7,025.5,023.4,0000.0,0017.04,0005.23,0004.18
